CAPELLA-11 (ACADIA)

Satellite information

Favourite Embed

Satellite Type and Status

PAYLOADIN ORBIT

Key statistics

Satellite CAPELLA-11 (ACADIA) at a glance.

Uptime

684

Days in orbit

Revolutions

≈ 14.8

Per day

Orbit

LEO

Low Earth Orbit

Inclination

53.0

Latest

Satellite identification and parameters

Extended collection of information and parameters for CAPELLA-11 (ACADIA).

Object identification

Identified? True

Debris? False

Object name: CAPELLA-11 (ACADIA)

International designator: 2023-126A

Object number (NORAD): 57693

Object ID (CCSDS): 57693

Country: UNITED STATES OF AMERICA (US)

Current information (Y/N): Y

RCS size: LARGE

Orbital parameters

Period: 97.364 minutes

Inclination: 53.0074 deg

SMA: 7010.67 km

Apoapsis: 634.063 km

Periapsis: 631.008 km

RAAN: 235.2774 deg

Eccentricy: 0.0002179

Argument of periapsis: 127.3657 deg

Mean anomaly: 232.7518 deg

Mean motion: 14.78983847 rev/day

Mean motion (dot): 0.00002329 rev/day2

B* drag term: 0.00034188 1/REarth

Two-line elements (TLE)

Creation date: July 6, 2025, 2:46 p.m.

Reference frame: TEME

Reference center: EARTH

Epoch: July 6, 2025, 12:34 p.m. UTC

TLE line 0: 0 CAPELLA-11 (ACADIA)

TLE line 1: 1 57693U 23126A 25187.52428557 .00002329 00000-0 34188-3 0 9998

TLE line 2: 2 57693 53.0074 235.2774 0002179 127.3657 232.7518 14.78983847100942

Live tracking on map

Real-time ground track for satellite CAPELLA-11 (ACADIA).

In-orbit conjunctions

There are no conjunctions computed for CAPELLA-11 (ACADIA), at the moment. Check back to stay up to date, as we update our databases every day.

Go to all conjunctions

Associated space launch

Payload consists of a single SAR Earth-imaging Acadia satellite, a new generation satellite designed, manufactured, and operated by Capella Space. First mission to fly with a reused engine.

CAPELLA-11 (ACADIA) was lifted into orbit during the mission ‘Electron | We Love the Nightlife (Capella Acadia 1)’, on board a Electron space rocket.

The launch took place on Aug. 23, 2023, 11:45 p.m. from Rocket Lab Launch Complex 1B.

For more information about the launch, click the button.

Launch to space Electron | We Love the Nightlife (Capella Acadia 1)
Electron | We Love the Nightlife (Capella Acadia 1)

Agency: Capella Space

Status: Launch Successful

Launch date: Aug. 23, 2023, 11:45 p.m. UTC

Rocket: Electron

Launch pad: Rocket Lab Launch Complex 1B

Location: Rocket Lab Launch Complex 1, Mahia Peninsula, New Zealand

...

Latest news about this satellite

News about space launch
RocketLab Flys Recovered Electron Engine For First Time

Rocket Lab has achieved a significant milestone in the effort to make Electron reusable, for the first time the company has flown an engine that had previously flown before and was recovered from the ocean.

News about space launch
The re-flight of a Rutherford engine demonstrates rocket reuse is here to stay

"The data is in, perfect performance from the reused engine."

News about space launch
Rocket Lab launches 40th mission, first re-flown Rutherford engine

Rocket Lab’s ‘We Love the Nightlife’ mission lifted off at 11:45 a.m. NZST (23:45 UTC), bringing the Acadia satellite to orbit and...


Newsletter sign-up

Weekly statistics, charts and insights to help you stay on top of the space industry.